Date String (YYYY-MM-DD hh:mm:ss) UTC,Instrument flags,Ambient pressure (hPa),Sample flow (lpm),Bypass flow (lpm),Sample temperature (°C),Ambient temperature (°C),ASC tube jacket temperature (°C),LED temperature (°C),Box temperature (°C),Sample RH (%),Span deviation,Mass concentration (μg/m³),Mass concentration (μg/m³),Mass concentration (μg/m³)
DateTimeUTC,F1_M11,P_M11,Q1_M11,Q2_M11,T1_M11,T2_M11,T3_M11,T4_M11,T5_M11,U1_M11,ZSPAN_M11,X0_M11,X2_M11,X1_M11
2023-02-26 18:00:00,,0809.8,5.01,0.00,23.7,22.5,00.0,32.3,25.5,15.2,0000.0,0015.27,0007.25,0006.61
2023-02-26 18:01:00,,0809.7,5.01,0.00,23.7,22.5,00.0,32.3,25.5,15.3,0000.0,0015.16,0007.22,0006.62
2023-02-26 18:02:00,,0809.7,5.00,0.00,23.7,22.5,00.0,32.3,25.5,15.3,0000.0,0015.69,0007.22,0006.63
2023-02-26 18:03:00,,0809.7,5.01,0.00,23.7,22.6,00.0,32.3,25.6,15.4,0000.0,0015.35,0007.26,0006.63
2023-02-26 18:04:00,,0809.7,5.00,0.00,23.7,22.6,00.0,32.3,25.6,15.4,0000.0,0015.37,0007.35,0006.65
2023-02-26 18:05:00,,0809.8,4.99,0.00,23.7,22.6,00.0,32.3,25.6,15.6,0000.0,0015.23,0007.34,0006.62
2023-02-26 18:06:00,,0809.7,4.99,0.00,23.8,22.6,00.0,32.3,25.6,15.9,0000.0,0014.20,0007.34,0006.59
2023-02-26 18:07:00,,0809.8,4.98,0.00,23.8,22.6,00.0,32.4,25.6,15.5,0000.0,0013.57,0007.31,0006.56
2023-02-26 18:08:00,,0809.7,5.01,0.00,23.8,22.6,00.0,32.4,25.6,15.4,0000.0,0013.88,0007.26,0006.53
2023-02-26 18:09:00,,0809.6,5.02,0.00,23.8,22.6,00.0,32.4,25.7,15.3,0000.0,0014.75,0007.25,0006.51
2023-02-26 18:10:00,,0809.5,4.99,0.00,23.8,22.7,00.0,32.4,25.7,15.1,0000.0,0014.21,0007.24,0006.49
2023-02-26 18:11:00,,0809.6,4.98,0.00,23.8,22.7,00.0,32.4,25.7,15.8,0000.0,0013.65,0007.23,0006.47
2023-02-26 18:12:00,,0809.6,5.01,0.00,23.8,22.7,00.0,32.4,25.7,15.3,0000.0,0013.64,0007.23,0006.44
2023-02-26 18:13:00,,0809.5,5.02,0.00,23.8,22.7,00.0,32.4,25.7,14.9,0000.0,0013.19,0007.21,0006.40
2023-02-26 18:14:00,,0809.5,4.99,0.00,23.8,22.7,00.0,32.4,25.7,14.9,0000.0,0013.30,0007.18,0006.37
2023-02-26 18:15:00,,0809.5,4.99,0.00,23.8,22.7,00.0,32.5,25.7,15.1,0000.0,0014.34,0007.10,0006.34
2023-02-26 18:16:00,,0809.5,5.00,0.00,23.9,22.7,00.0,32.5,25.7,15.1,0000.0,0014.23,0007.10,0006.34
2023-02-26 18:17:00,,0809.4,5.01,0.00,23.9,22.7,00.0,32.5,25.7,15.2,0000.0,0014.81,0007.11,0006.36
2023-02-26 18:18:00,,0809.4,4.99,0.00,23.9,22.7,00.0,32.5,25.7,15.7,0000.0,0015.19,0007.17,0006.39
2023-02-26 18:19:00,,0809.4,5.00,0.00,23.9,22.7,00.0,32.5,25.8,15.5,0000.0,0015.70,0007.20,0006.39
2023-02-26 18:20:00,,0809.4,4.99,0.00,23.9,22.7,00.0,32.5,25.8,15.3,0000.0,0015.03,0007.19,0006.41
2023-02-26 18:21:00,,0809.4,5.00,0.00,23.9,22.8,00.0,32.5,25.8,15.6,0000.0,0015.04,0007.21,0006.43
2023-02-26 18:22:00,,0809.4,4.99,0.00,23.9,22.8,00.0,32.5,25.9,15.5,0000.0,0016.03,0007.23,0006.45
2023-02-26 18:23:00,,0809.3,5.00,0.00,23.9,22.8,00.0,32.5,25.9,15.7,0000.0,0017.01,0007.24,0006.47
2023-02-26 18:24:00,,0809.3,5.00,0.00,23.9,22.8,00.0,32.5,25.9,15.7,0000.0,0017.29,0007.25,0006.50
2023-02-26 18:25:00,,0809.2,5.00,0.00,23.9,22.8,00.0,32.6,25.9,15.2,0000.0,0017.09,0007.25,0006.51
2023-02-26 18:26:00,,0809.2,4.99,0.00,24.0,22.8,00.0,32.6,25.9,15.3,0000.0,0015.75,0007.30,0006.54
2023-02-26 18:27:00,,0809.2,5.00,0.00,24.0,22.7,00.0,32.6,25.9,15.5,0000.0,0015.69,0007.30,0006.56
2023-02-26 18:28:00,,0809.2,4.99,0.00,24.0,22.7,00.0,32.6,25.9,15.3,0000.0,0015.79,0007.32,0006.58
2023-02-26 18:29:00,,0809.2,5.00,0.00,24.0,22.8,00.0,32.6,25.9,15.2,0000.0,0015.56,0007.29,0006.58
2023-02-26 18:30:00,,0809.2,5.01,0.00,24.0,22.8,00.0,32.6,25.9,15.4,0000.0,0014.54,0007.28,0006.60
2023-02-26 18:31:00,,0809.2,5.00,0.00,24.0,22.8,00.0,32.6,25.9,16.8,0000.0,0014.93,0007.29,0006.60
2023-02-26 18:32:00,,0809.2,4.99,0.00,24.0,22.8,00.0,32.6,25.9,16.2,0000.0,0015.45,0007.34,0006.61
2023-02-26 18:33:00,,0809.1,5.00,0.00,24.0,22.8,00.0,32.6,25.9,16.0,0000.0,0014.85,0007.42,0006.62
2023-02-26 18:34:00,,0809.0,4.98,0.00,24.0,22.8,00.0,32.6,25.9,16.0,0000.0,0014.10,0007.47,0006.63
2023-02-26 18:35:00,,0809.0,5.03,0.00,24.0,22.8,00.0,32.7,26.0,15.8,0000.0,0013.75,0007.50,0006.63
2023-02-26 18:36:00,,0809.0,5.01,0.00,24.0,22.9,00.0,32.7,26.0,15.4,0000.0,0013.80,0007.55,0006.66
2023-02-26 18:37:00,,0808.9,4.99,0.00,24.1,22.9,00.0,32.7,26.0,15.7,0000.0,0013.80,0007.56,0006.67
2023-02-26 18:38:00,,0808.9,4.99,0.00,24.1,22.9,00.0,32.7,26.0,16.1,0000.0,0013.95,0007.58,0006.68
2023-02-26 18:39:00,,0808.9,5.00,0.00,24.1,22.9,00.0,32.7,26.0,15.6,0000.0,0013.37,0007.59,0006.69
2023-02-26 18:40:00,,0808.9,5.00,0.00,24.1,22.9,00.0,32.7,26.0,15.6,0000.0,0013.10,0007.63,0006.71
2023-02-26 18:41:00,,0808.8,5.00,0.00,24.1,22.9,00.0,32.7,26.0,15.4,0000.0,0013.10,0007.66,0006.73
2023-02-26 18:42:00,,0808.7,5.00,0.00,24.1,22.9,00.0,32.7,26.0,15.6,0000.0,0012.55,0007.70,0006.75
2023-02-26 18:43:00,,0808.7,5.01,0.00,24.1,22.9,00.0,32.7,26.0,15.7,0000.0,0012.14,0007.69,0006.75
2023-02-26 18:44:00,,0808.7,5.00,0.00,24.1,22.9,00.0,32.7,26.0,15.8,0000.0,0012.07,0007.67,0006.78
2023-02-26 18:45:00,,0808.7,5.00,0.00,24.1,22.9,00.0,32.7,26.0,15.9,0000.0,0012.42,0007.71,0006.80
2023-02-26 18:46:00,,0808.7,4.99,0.00,24.1,22.9,00.0,32.7,26.0,15.3,0000.0,0013.13,0007.74,0006.82
2023-02-26 18:47:00,,0808.6,4.99,0.00,24.1,22.9,00.0,32.7,26.1,15.9,0000.0,0013.24,0007.75,0006.82
2023-02-26 18:48:00,,0808.6,5.00,0.00,24.2,23.0,00.0,32.8,26.1,15.4,0000.0,0013.50,0007.80,0006.83
2023-02-26 18:49:00,,0808.6,5.01,0.00,24.2,23.0,00.0,32.8,26.1,15.3,0000.0,0013.39,0007.77,0006.82
2023-02-26 18:50:00,,0808.5,5.01,0.00,24.2,23.0,00.0,32.8,26.1,15.4,0000.0,0013.49,0007.82,0006.83
2023-02-26 18:51:00,,0808.4,5.00,0.00,24.2,23.0,00.0,32.8,26.1,15.5,0000.0,0013.62,0007.84,0006.82
2023-02-26 18:52:00,,0808.4,5.00,0.00,24.2,23.0,00.0,32.8,26.1,16.3,0000.0,0013.75,0007.86,0006.82
2023-02-26 18:53:00,,0808.4,5.01,0.00,24.2,23.1,00.0,32.8,26.2,15.6,0000.0,0013.70,0007.84,0006.81
2023-02-26 18:54:00,,0808.5,4.99,0.00,24.2,23.1,00.0,32.8,26.2,16.1,0000.0,0013.61,0007.84,0006.81
2023-02-26 18:55:00,,0808.4,5.01,0.00,24.3,23.1,00.0,32.8,26.2,16.2,0000.0,0014.02,0007.86,0006.80
2023-02-26 18:56:00,,0808.3,5.00,0.00,24.3,23.1,00.0,32.8,26.2,15.7,0000.0,0014.26,0007.82,0006.77
2023-02-26 18:57:00,,0808.3,5.00,0.00,24.3,23.1,00.0,32.8,26.2,15.9,0000.0,0013.82,0007.79,0006.74
2023-02-26 18:58:00,,0808.3,5.00,0.00,24.3,23.1,00.0,32.9,26.2,15.6,0000.0,0013.95,0007.76,0006.71
2023-02-26 18:59:00,,0808.2,5.00,0.00,24.3,23.1,00.0,32.9,26.2,15.9,0000.0,0014.18,0007.76,0006.71
